Regional Weather Roundup
Issued by NWS

Home | Current Version | Previous Version | Text Only | Print | Product List | Glossary On
Versions: 1 2 3 4 5 6 7 8 9 10 11 12 13 14 15 16 17 18 19 20 21 22 23 24 25 26 27 28 29 30 31 32 33 34 35 36 37 38 39 40 41 42 43 44 45 46 47 48 49 50
000
ASUS43 KIND 271909
RWRIN

WEATHER ROUNDUP FOR INDIANA
NATIONAL WEATHER SERVICE INDIANAPOLIS IN
300 PM EDT WED MAY 27 2015

NOTE: "FAIR" INDICATES FEW OR NO CLOUDS BELOW 12,000 FEET WITH NO
SIGNIFICANT WEATHER AND/OR OBSTRUCTIONS TO VISIBILITY.

* - STATION DOES NOT REPORT WEATHER SUCH AS PRECIPITATION OR FOG.

+ - STATION NOT QUALITY CONTROLLED BY THE NATIONAL WEATHER SERVICE.
    USE DATA WITH CAUTION...ESPECIALLY DEWPOINT AND RELATIVE
    HUMIDITY OBSERVATIONS.

INZ001>003-010>013-019-020-272000-
NORTHWEST INDIANA

CITY           SKY/WX    TMP DP  RH WIND       PRES   REMARKS
GARY /AIRPORT/ PTSUNNY   75  59  57 W24G36    30.00R
KNOX *+        CLOUDY    68  64  88 SW12      30.00S
LA PORTE +     PTSUNNY   75  57  52 W13G21    30.00R
MICHIGAN CITY+ PTSUNNY   70  54  56 NW10G23   30.01R
MONTICELLO +   CLOUDY    74  67  78 W16       30.00F
RENSSELAER +   CLOUDY    70  68  94 SW9       30.01F
VALPARAISO     PTSUNNY   77  55  46 W21G30    30.00R

$$

LMZ046-743>745-272000-
SOUTHERN LAKE MICHIGAN

STATION/POSITION TIME  TEMP    WIND        PRES    WAVE
                       AIR SEA DIR/SP/G            HT
                 (UTC) (F)     (DEG/KT/KT) (MB)    (FT)
BURNS HARBOR     1900   63     300/ 16/ 22 1016.3R
MICHIGAN CITY    1900   61     250/ 17/ 20   N/A
5NW MICH CITY    1900   58 52  290/  8/ 12   N/A     1

$$

INZ004-005-014>016-021>024-272000-
NORTH CENTRAL INDIANA

CITY           SKY/WX    TMP DP  RH WIND       PRES   REMARKS
ELKHART        CLOUDY    68  66  94 SW9       30.00R
GOSHEN         LGT RAIN  66  62  87 W14       30.01R
LOGANSPORT +   CLOUDY    72  66  83 W9G16     30.02F
PERU/GRISSOM   MOSUNNY   76  65  68 W17       30.00S
ROCHESTER +    CLOUDY    72  68  88 W9        30.02R
SOUTH BEND     CLOUDY    75  59  57 W17G23    30.00R
WARSAW +       LGT RAIN  68  66  94 SW8       30.02R

$$

INZ006>009-017-018-025>027-272000-
NORTHEAST INDIANA

CITY           SKY/WX    TMP DP  RH WIND       PRES   REMARKS
ANGOLA *+      MOSUNNY   70  61  73 SW8       30.00R
AUBURN +       DRIZZLE   68  61  77 S3        30.03R
FORT WAYNE     LGT RAIN  69  64  84 W12G23    30.01S
HUNTINGTON +   PTSUNNY   70  66  86 W7        30.00F

$$

INZ028-029-035-036-043>045-051>053-272000-
WEST CENTRAL INDIANA

CITY           SKY/WX    TMP DP  RH WIND       PRES   REMARKS
CRAWFORDSVL +  CLOUDY    79  48  33 SW18      30.03S
GREENCASTLE +  CLOUDY    79  55  44 SW6       30.05S
LAFAYETTE      CLOUDY    76  63  64 W10G23    30.00S
TERRE HAUTE    PTSUNNY   80  57  45 SW15G25   30.04F

$$

INZ030>032-037>040-046>048-054>057-064-065-272000-
CENTRAL INDIANA

CITY           SKY/WX    TMP DP  RH WIND       PRES   REMARKS
ANDERSON       MOSUNNY   81  55  41 SW12G23   30.04F
CP ATTERBURY + CLOUDY    79  63  57 S12       30.05F
COLUMBUS       PTSUNNY   79  59  50 S14       30.04F
FRANKFORT +    CLOUDY    80  59  48 S21       30.04S
INDIANAPOLIS   CLOUDY    80  62  54 SW14      30.03F
-EAGLE CREEK   CLOUDY    80  61  52 SW9G16    30.02F
KOKOMO *+      CLOUDY    81  63  54 W20       30.01S
MARION +       CLOUDY    80  57  45 W22G30    30.01F
MT COMFORT *+  PTSUNNY   82  50  32 S9        30.03F
SHELBYVILLE    PTSUNNY   82  62  50 S18       30.02F
ZIONSVILLE +   CLOUDY    82  53  35 W20G25    30.04R

$$

INZ033-034-041-042-049-050-058-059-272000-
EAST CENTRAL INDIANA

CITY           SKY/WX    TMP DP  RH WIND       PRES   REMARKS
MUNCIE         PTSUNNY   82  60  47 SW17G32   30.01F

$$

INZ060-061-067>069-081>083-085>088-272000-
SOUTHWEST INDIANA

CITY           SKY/WX    TMP DP  RH WIND       PRES   REMARKS
EVANSVILLE     MOSUNNY   79  66  64 S9        30.11R
HUNTINGBURG *+ PTSUNNY   79  64  61 S12G18    30.09R
WASHINGTON +   MOSUNNY   81  61  49 SW7       30.07R

$$

INZ062-063-066-070>080-084-089>092-272000-
SOUTH CENTRAL AND SOUTHEAST INDIANA

CITY           SKY/WX    TMP DP  RH WIND       PRES   REMARKS
BLOOMINGTON    PTSUNNY   79  64  60 S9        30.06R
MADISON *+     PTSUNNY   79  61  53 SW13      30.12F
NORTH VERNON + PTSUNNY   81  64  57 S15       30.08F
SEYMOUR +      CLOUDY    82  61  47 S16       30.05F

$$




USA.gov is the U.S. government's official web portal to all federal, state and local government web resources and services.